FW2392 Weather Reports


Display with metric or nautical units.
time (UTC)temp
F
wind
direction
speed
MPH
gust
MPH
rain 1hr
in
rain 24hr
in
rain mn
in
humidity
%
barometer
mb
20260510010903 58 163 1.0 5.0 0.00 0.00 0.00 74 1009.1
20260510010003 59 166 1.0 5.0 0.00 0.00 0.00 74 1009.0
20260510005403 59 158 1.0 4.0 0.00 0.00 0.00 74 1008.9
20260510004503 59 164 1.0 4.0 0.00 0.00 0.00 73 1008.7
20260510003624 60 165 1.0 4.0 0.00 0.00 0.00 73 1008.5
20260510002703 60 154 0.0 4.0 0.00 0.00 0.00 72 1008.4
20260510001803 61 150 1.0 4.0 0.00 0.00 0.00 72 1008.5
20260510000924 61 140 1.0 3.0 0.00 0.00 0.00 71 1008.5
20260510000004 62 96 0.0 3.0 0.00 0.00 0.00 70 1008.7
20260509235425 62 77 0.0 2.0 0.00 0.00 0.00 70 1008.6
20260509234503 64 67 0.0 2.0 0.00 0.00 0.00 68 1008.6
20260509233603 65 63 1.0 2.0 0.00 0.00 0.00 67 1008.6
20260509232703 65 54 1.0 2.0 0.00 0.00 0.00 66 1008.4
20260509231803 66 53 0.0 3.0 0.00 0.00 0.00 51 1008.4
20260509230903 65 71 1.0 4.0 0.00 0.00 0.00 67 1008.3
20260509230003 66 79 1.0 4.0 0.00 0.00 0.00 50 1008.4
20260509225403 66 66 2.0 4.0 0.00 0.00 0.00 65 1008.5
20260509224503 66 41 2.0 4.0 0.00 0.00 0.00 65 1008.4
20260509223624 66 68 2.0 4.0 0.00 0.00 0.00 66 1008.5
20260509222703 66 68 2.0 6.0 0.00 0.00 0.00 66 1008.5
20260509221803 66 76 2.0 7.0 0.00 0.00 0.00 66 1008.3
20260509220925 66 73 2.0 7.0 0.00 0.00 0.00 65 1008.2
20260509220003 66 87 2.0 7.0 0.00 0.00 0.00 66 1008.2
20260509215403 65 81 3.0 8.0 0.00 0.00 0.00 66 1008.3
20260509214503 66 82 3.0 8.0 0.00 0.00 0.00 66 1008.4
20260509213603 66 74 3.0 8.0 0.00 0.00 0.00 65 1008.5
20260509212703 66 74 3.0 6.0 0.00 0.00 0.00 52 1008.5
20260509211803 66 41 3.0 6.0 0.00 0.00 0.00 65 1008.5
20260509210903 66 39 2.0 8.0 0.00 0.00 0.00 50 1008.4
20260509210004 66 42 1.0 8.0 0.00 0.00 0.00 66 1008.6
20260509205403 67 64 2.0 8.0 0.00 0.00 0.00 63 1008.5
20260509204503 67 137 1.0 5.0 0.00 0.00 0.00 65 1008.5
20260509203603 66 49 1.0 6.0 0.00 0.00 0.00 64 1008.3
20260509202703 66 82 2.0 6.0 0.00 0.00 0.00 63 1008.5
20260509201824 66 116 2.0 8.0 0.00 0.00 0.00 67 1008.5
20260509200924 66 134 2.0 8.0 0.00 0.00 0.00 66 1008.5
20260509200003 66 116 1.0 8.0 0.00 0.00 0.00 64 1008.5
20260509195403 65 140 2.0 7.0 0.00 0.00 0.00 64 1008.6
20260509194503 65 173 4.0 7.0 0.00 0.00 0.00 63 1008.6
20260509193603 65 178 3.0 10.0 0.00 0.00 0.00 63 1008.8
20260509192703 65 165 4.0 10.0 0.00 0.00 0.00 63 1008.6
20260509191824 65 204 3.0 9.0 0.00 0.00 0.00 62 1008.9
20260509190903 65 200 4.0 9.0 0.00 0.00 0.00 62 1008.9
20260509190024 65 154 4.0 9.0 0.00 0.00 0.00 63 1009.0
20260509185403 66 154 4.0 9.0 0.00 0.00 0.00 45 1009.0
20260509184503 65 105 3.0 8.0 0.00 0.00 0.00 64 1009.0
20260509183603 64 124 3.0 8.0 0.00 0.00 0.00 67 1009.1
20260509182703 63 112 3.0 7.0 0.00 0.00 0.00 66 1009.2
20260509181803 63 146 2.0 7.0 0.00 0.00 0.00 67 1009.8
20260509180903 62 111 3.0 6.0 0.00 0.00 0.00 64 1009.8
20260509180003 62 45 2.0 5.0 0.00 0.00 0.00 66 1010.3
20260509175404 62 61 2.0 5.0 0.00 0.00 0.00 69 1010.3
20260509174503 62 132 2.0 4.0 0.00 0.00 0.00 67 1010.3
20260509173624 61 282 0.0 3.0 0.00 0.00 0.00 67 1010.7
20260509172703 61 92 1.0 3.0 0.00 0.00 0.00 49 1010.8
20260509171803 61 74 2.0 6.0 0.00 0.00 0.00 64 1010.6
20260509170924 61 73 3.0 6.0 0.00 0.00 0.00 63 1010.6
20260509170003 61 82 2.0 5.0 0.00 0.00 0.00 63 1010.4
20260509165404 61 66 2.0 4.0 0.00 0.00 0.00 64 1010.6
20260509164503 60 77 2.0 4.0 0.00 0.00 0.00 62 1010.7
20260509163603 60 93 2.0 4.0 0.00 0.00 0.00 62 1010.8
20260509162703 61 314 1.0 4.0 0.00 0.00 0.00 62 1010.7
20260509161803 61 121 2.0 4.0 0.00 0.00 0.00 60 1010.8
20260509160903 60 53 1.0 5.0 0.00 0.00 0.00 61 1010.8
20260509160024 60 71 2.0 6.0 0.00 0.00 0.00 61 1010.6
20260509155403 60 30 2.0 6.0 0.00 0.00 0.00 61 1010.6
20260509154504 61 345 2.0 5.0 0.00 0.00 0.00 46 1010.7
20260509153603 61 25 2.0 5.0 0.00 0.00 0.00 61 1010.6
20260509152724 60 11 2.0 5.0 0.00 0.00 0.00 66 1010.8
20260509151803 59 16 2.0 4.0 0.00 0.00 0.00 70 1011.0
20260509150903 58 1 1.0 3.0 0.00 0.00 0.00 68 1011.1
20260509150003 57 352 1.0 3.0 0.00 0.00 0.00 70 1011.2
20260509145403 57 352 0.0 2.0 0.00 0.00 0.00 73 1010.9
20260509144504 57 352 0.0 2.0 0.00 0.00 0.00 72 1011.2
20260509143603 57 352 0.0 3.0 0.00 0.00 0.00 71 1011.0
20260509142703 57 345 1.0 3.0 0.00 0.00 0.00 69 1011.0
20260509141803 57 300 1.0 3.0 0.00 0.00 0.00 69 1010.9
20260509140903 57 256 1.0 2.0 0.00 0.00 0.00 69 1011.0
20260509140024 57 256 1.0 2.0 0.00 0.00 0.00 68 1010.9
20260509135403 57 250 2.0 6.0 0.00 0.00 0.00 66 1010.9
20260509134503 57 208 3.0 4.0 0.00 0.00 0.00 67 1010.9
20260509133603 57 202 2.0 4.0 0.00 0.00 0.00 67 1010.8
20260509132703 56 202 2.0 5.0 0.00 0.00 0.00 67 1010.6
20260509131803 56 203 2.0 6.0 0.00 0.00 0.00 67 1010.7
20260509130903 56 210 2.0 6.0 0.00 0.00 0.00 66 1010.5
20260509130003 56 204 4.0 9.0 0.00 0.00 0.00 66 1010.7
20260509125424 56 196 4.0 9.0 0.00 0.00 0.00 65 1010.7
20260509124503 56 196 3.0 7.0 0.00 0.00 0.00 65 1010.7
20260509123603 56 190 3.0 6.0 0.00 0.00 0.00 65 1010.6
20260509122703 56 201 3.0 6.0 0.00 0.00 0.00 65 1010.6
20260509121803 56 207 3.0 6.0 0.00 0.00 0.00 65 1010.7
20260509120903 56 216 4.0 6.0 0.00 0.00 0.00 64 1010.7
20260509120003 56 220 4.0 7.0 0.00 0.00 0.00 64 1010.8
20260509115403 56 213 4.0 7.0 0.00 0.00 0.00 63 1010.8
20260509114503 56 209 3.0 6.0 0.00 0.00 0.00 47 1010.6
20260509113603 56 222 3.0 5.0 0.00 0.00 0.00 64 1010.6
20260509112703 56 229 3.0 8.0 0.00 0.00 0.00 47 1010.5
20260509111803 56 223 4.0 8.0 0.00 0.00 0.00 62 1010.2
20260509110903 56 258 3.0 7.0 0.00 0.00 0.00 61 1010.1
20260509110003 56 227 3.0 7.0 0.00 0.00 0.00 62 1010.0
20260509105425 56 219 4.0 7.0 0.00 0.00 0.00 61 1009.8
20260509104503 56 222 4.0 9.0 0.00 0.00 0.00 61 1009.8
20260509103603 56 232 4.0 9.0 0.00 0.00 0.00 60 1009.9
20260509102703 56 230 4.0 8.0 0.00 0.00 0.00 61 1010.0
20260509101803 55 222 4.0 9.0 0.00 0.00 0.00 62 1009.9
20260509100903 56 221 4.0 9.0 0.00 0.00 0.00 61 1009.9
20260509100004 56 219 4.0 8.0 0.00 0.00 0.00 60 1009.7
20260509095404 56 219 4.0 8.0 0.00 0.00 0.00 61 1009.7
20260509094503 56 221 4.0 9.0 0.00 0.00 0.00 61 1009.7
20260509093603 55 222 5.0 9.0 0.00 0.00 0.00 62 1009.8
20260509092703 55 214 5.0 10.0 0.00 0.00 0.00 62 1009.8
20260509091803 55 215 5.0 12.0 0.00 0.00 0.00 62 1009.9
20260509090903 55 211 6.0 12.0 0.00 0.00 0.00 61 1010.0
20260509090004 55 198 6.0 12.0 0.00 0.00 0.00 61 1009.9
20260509085424 55 198 7.0 12.0 0.00 0.00 0.00 61 1009.9
20260509084503 55 197 6.0 12.0 0.00 0.00 0.00 61 1010.0
20260509083624 55 197 6.0 12.0 0.00 0.00 0.00 61 1010.1
20260509082703 55 198 6.0 13.0 0.00 0.00 0.00 62 1010.1
20260509081803 55 202 6.0 13.0 0.00 0.00 0.00 62 1010.2
20260509080924 55 199 6.0 11.0 0.00 0.00 0.00 62 1010.1
20260509080003 55 191 5.0 10.0 0.00 0.00 0.00 62 1010.1
20260509075403 55 193 6.0 10.0 0.00 0.00 0.00 62 1010.2
20260509074503 55 196 5.0 9.0 0.00 0.00 0.00 62 1010.2
20260509073603 55 192 5.0 9.0 0.00 0.00 0.00 62 1010.2
20260509072703 55 195 4.0 8.0 0.00 0.00 0.00 62 1010.3
20260509071803 55 195 4.0 8.0 0.00 0.00 0.00 63 1010.3
20260509070903 55 196 4.0 8.0 0.00 0.00 0.00 62 1010.4
20260509070004 55 203 4.0 9.0 0.00 0.00 0.00 62 1010.4
20260509065403 55 196 4.0 9.0 0.00 0.00 0.00 62 1010.4
20260509064503 55 197 4.0 9.0 0.00 0.00 0.00 63 1010.5
20260509063603 54 200 4.0 8.0 0.00 0.00 0.00 63 1010.5
20260509062724 54 197 4.0 10.0 0.00 0.00 0.00 63 1010.6
20260509061803 54 186 5.0 9.0 0.00 0.00 0.00 64 1010.8
20260509060924 54 166 5.0 9.0 0.00 0.00 0.00 49 1010.8
20260509060004 53 157 4.0 9.0 0.00 0.00 0.00 66 1010.7
20260509055403 53 153 4.0 7.0 0.00 0.00 0.00 67 1010.7
20260509054524 53 158 4.0 7.0 0.00 0.00 0.00 66 1010.8
20260509053603 53 148 3.0 6.0 0.00 0.00 0.00 66 1011.1
20260509052703 53 142 3.0 5.0 0.00 0.00 0.00 66 1011.1
20260509051803 54 161 3.0 5.0 0.00 0.00 0.00 65 1011.2
20260509050903 55 169 3.0 5.0 0.00 0.00 0.00 63 1011.2
20260509050025 55 179 3.0 7.0 0.00 0.00 0.00 62 1011.2
20260509045403 55 176 3.0 8.0 0.00 0.00 0.00 62 1011.2
20260509044524 55 174 3.0 8.0 0.00 0.00 0.00 62 1011.2
20260509043603 55 168 4.0 8.0 0.00 0.00 0.00 62 1011.2
20260509042703 55 158 3.0 9.0 0.00 0.00 0.00 62 1011.1
20260509041803 55 154 3.0 9.0 0.00 0.00 0.00 62 1011.3
20260509040903 56 155 4.0 7.0 0.00 0.00 0.00 62 1011.3
20260509040025 56 145 3.0 5.0 0.00 0.00 0.00 62 1011.2
20260509035403 56 143 3.0 5.0 0.00 0.00 0.00 62 1011.2
20260509034504 56 147 3.0 5.0 0.00 0.00 0.00 46 1011.3
20260509033603 57 144 3.0 5.0 0.00 0.00 0.00 60 1011.3
20260509032703 57 162 2.0 5.0 0.00 0.00 0.00 59 1011.3
20260509031803 57 168 3.0 5.0 0.00 0.00 0.00 58 1011.4
20260509030903 57 164 3.0 6.0 0.00 0.00 0.00 58 1011.4
20260509030003 57 164 3.0 6.0 0.00 0.00 0.00 58 1011.6
20260509025403 57 160 3.0 6.0 0.00 0.00 0.00 59 1011.7
20260509024503 57 161 2.0 4.0 0.00 0.00 0.00 58 1011.7
20260509023603 57 161 1.0 4.0 0.00 0.00 0.00 58 1011.7
20260509022724 58 161 1.0 4.0 0.00 0.00 0.00 59 1011.7
20260509021803 58 161 2.0 4.0 0.00 0.00 0.00 59 1011.7
20260509020903 58 167 2.0 4.0 0.00 0.00 0.00 59 1011.8
20260509020004 58 182 1.0 2.0 0.00 0.00 0.00 58 1011.8
20260509015403 58 182 1.0 2.0 0.00 0.00 0.00 58 1011.7
20260509014503 58 0 0.0 2.0 0.00 0.00 0.00 58 1011.8
20260509013624 58 182 1.0 2.0 0.00 0.00 0.00 59 1011.7
20260509012704 59 182 1.0 4.0 0.00 0.00 0.00 57 1011.8
20260509011803 59 182 1.0 4.0 0.00 0.00 0.00 58 1011.8